Location: Carnetin
(48.9010°N, 2.7059°E)
Time: 10:57:18
(UTC+00:00)

NOSS 2-3 (C) - Pass Details

Date: 24 October 2021
Orbit: 536 x 1675 km, 63.3° (Epoch: 25 November)

Event Time Altitude Azimuth Distance (km) Brightness Sun altitude
Rises 18:21:49 0° 221° (SW) 2,687 7.4 -17.0°
Reaches altitude 10° 18:23:52 10° 221° (SW) 1,832 6.5 -17.3°
Maximum altitude 18:27:52 88° 304° (NW) 615 3.5 -18.0°
Enters shadow 18:30:51 22° 41° (NE) 1,450 5.1 -18.5°
